20040329,000014,518404,32.887400,-118.995350,13.975,33.119,NaN,NaN
20040329,000044,518434,32.887980,-118.993920,14.016,33.121,NaN,NaN
20040329,000114,518464,32.888600,-118.992470,14.047,33.122,NaN,NaN
20040329,000144,518494,32.889200,-118.991040,14.138,33.126,NaN,NaN
20040329,000214,518524,32.889800,-118.989610,14.344,33.127,NaN,NaN
20040329,000244,518553,32.890410,-118.988190,14.389,33.122,NaN,NaN
20040329,000314,518584,32.891010,-118.986760,14.337,33.121,NaN,NaN
20040329,000344,518614,32.891630,-118.985340,14.291,33.119,NaN,NaN
20040329,000414,518644,32.892220,-118.983960,14.277,33.122,NaN,NaN
20040329,000444,518674,32.892850,-118.982490,14.239,33.121,NaN,NaN
20040329,000514,518704,32.893430,-118.981120,14.172,33.121,NaN,NaN
20040329,000544,518734,32.894040,-118.979710,14.145,33.122,NaN,NaN
20040329,000614,518764,32.894650,-118.978290,14.142,33.122,NaN,NaN
20040329,000644,518794,32.895260,-118.976860,14.111,33.122,NaN,NaN
20040329,000714,518824,32.895880,-118.975380,14.077,33.122,NaN,NaN
20040329,000744,518854,32.896480,-118.974010,14.111,33.124,NaN,NaN
20040329,000814,518883,32.897090,-118.972590,14.161,33.122,NaN,NaN
20040329,000844,518914,32.897700,-118.971130,14.164,33.123,NaN,NaN
20040329,000914,518944,32.898310,-118.969740,14.245,33.124,NaN,NaN
20040329,000944,518974,32.898900,-118.968340,14.249,33.121,NaN,NaN
20040329,001015,519005,32.899520,-118.966900,14.182,33.121,NaN,NaN
20040329,001045,519035,32.900110,-118.965480,14.131,33.122,NaN,NaN
20040329,001115,519065,32.900710,-118.964060,14.127,33.122,NaN,NaN
20040329,001145,519095,32.901280,-118.962660,14.185,33.122,NaN,NaN
20040329,001215,519125,32.901860,-118.961230,14.253,33.122,NaN,NaN
20040329,001245,519155,32.902440,-118.959820,14.356,33.122,NaN,NaN
20040329,001315,519185,32.903030,-118.958400,14.466,33.122,NaN,NaN
20040329,001345,519215,32.903600,-118.956970,14.509,33.121,NaN,NaN
20040329,001415,519245,32.904200,-118.955540,14.521,33.121,NaN,NaN
20040329,001445,519275,32.904800,-118.954130,14.531,33.121,NaN,NaN
20040329,001515,519304,32.905390,-118.952710,14.503,33.120,NaN,NaN
20040329,001545,519335,32.905980,-118.951270,14.460,33.119,NaN,NaN
20040329,001615,519365,32.906580,-118.949820,14.423,33.121,NaN,NaN
20040329,001645,519395,32.907180,-118.948380,14.372,33.120,NaN,NaN
20040329,001715,519425,32.907790,-118.946940,14.319,33.121,NaN,NaN
20040329,001745,519455,32.908410,-118.945490,14.335,33.130,NaN,NaN
20040329,001815,519484,32.909020,-118.944060,14.433,33.135,NaN,NaN
20040329,001845,519515,32.909640,-118.942640,14.406,33.133,NaN,NaN
20040329,001915,519545,32.910250,-118.941210,14.337,33.133,NaN,NaN
20040329,001945,519575,32.910870,-118.939780,14.294,33.133,NaN,NaN
20040329,002015,519605,32.911490,-118.938360,14.254,33.127,NaN,NaN
20040329,002045,519635,32.912110,-118.936930,14.218,33.139,NaN,NaN
20040329,002115,519665,32.912840,-118.935610,14.180,33.142,NaN,NaN
20040329,002146,519696,32.913930,-118.934690,14.210,33.148,NaN,NaN
20040329,002216,519725,32.915050,-118.934240,14.265,33.137,NaN,NaN
20040329,002246,519756,32.915900,-118.934300,14.320,33.154,NaN,NaN
20040329,002315,519785,32.916460,-118.934540,14.362,33.149,NaN,NaN
20040329,002345,519814,32.916750,-118.934880,14.348,33.154,NaN,NaN
20040329,002415,519845,32.916890,-118.935150,14.270,33.153,NaN,NaN
20040329,002445,519875,32.916930,-118.935400,14.204,33.154,NaN,NaN
20040329,002515,519905,32.916950,-118.935630,14.151,33.154,NaN,NaN
20040329,002545,519935,32.917000,-118.935820,14.114,33.154,NaN,NaN
20040329,002615,519965,32.917030,-118.935980,14.099,33.154,NaN,NaN
20040329,002645,519995,32.917090,-118.936070,14.120,33.156,NaN,NaN
20040329,002715,520025,32.917140,-118.936180,14.180,33.157,NaN,NaN
20040329,002745,520055,32.917180,-118.936270,14.207,33.155,NaN,NaN
20040329,002815,520085,32.917210,-118.936340,14.206,33.154,NaN,NaN
20040329,002845,520115,32.917260,-118.936400,14.225,33.156,NaN,NaN
20040329,002915,520144,32.917260,-118.936480,14.323,33.160,NaN,NaN
20040329,002945,520175,32.917270,-118.936590,14.396,33.160,NaN,NaN
20040329,003015,520205,32.917300,-118.936660,14.460,33.159,NaN,NaN
20040329,003045,520235,32.917310,-118.936730,14.480,33.158,NaN,NaN
20040329,003115,520265,32.917330,-118.936830,14.529,33.161,NaN,NaN
20040329,003145,520295,32.917350,-118.936950,14.588,33.161,NaN,NaN
20040329,003215,520324,32.917390,-118.937050,14.613,33.159,NaN,NaN
20040329,003245,520355,32.917410,-118.937120,14.651,33.162,NaN,NaN
20040329,003315,520385,32.917430,-118.937190,14.747,33.165,NaN,NaN
20040329,003345,520415,32.917440,-118.937260,14.751,33.160,NaN,NaN
20040329,003415,520445,32.917440,-118.937320,14.700,33.160,NaN,NaN
20040329,003446,520476,32.917440,-118.937380,14.824,33.167,NaN,NaN
20040329,003515,520505,32.917410,-118.937440,14.979,33.168,NaN,NaN
20040329,003545,520535,32.917410,-118.937530,15.025,33.166,NaN,NaN
20040329,003616,520565,32.917410,-118.937630,14.983,33.163,NaN,NaN
20040329,003646,520596,32.917420,-118.937690,14.905,33.151,NaN,NaN
20040329,003716,520626,32.917430,-118.937740,14.813,33.156,NaN,NaN
20040329,003746,520656,32.917450,-118.937780,14.681,33.152,NaN,NaN
20040329,003816,520686,32.917460,-118.937810,14.538,33.149,NaN,NaN
20040329,003846,520716,32.917500,-118.937810,14.448,33.149,NaN,NaN
20040329,003916,520745,32.917550,-118.937830,14.446,33.153,NaN,NaN
20040329,003946,520776,32.917570,-118.937870,14.487,33.154,NaN,NaN
20040329,004016,520806,32.917580,-118.937890,14.563,33.160,NaN,NaN
20040329,004046,520836,32.917590,-118.937890,14.841,33.172,NaN,NaN
20040329,004116,520866,32.917600,-118.937890,15.261,33.177,NaN,NaN
20040329,004146,520896,32.917590,-118.937870,15.600,33.180,NaN,NaN
20040329,004216,520926,32.917570,-118.937870,15.822,33.178,NaN,NaN
20040329,004246,520956,32.917550,-118.937840,15.790,33.165,NaN,NaN
20040329,004316,520986,32.917530,-118.937840,15.640,33.165,NaN,NaN
20040329,004346,521016,32.917520,-118.937850,15.576,33.162,NaN,NaN
20040329,004416,521046,32.917530,-118.937850,15.289,33.149,NaN,NaN
20040329,004446,521075,32.917510,-118.937860,14.944,33.144,NaN,NaN
20040329,004516,521106,32.917510,-118.937860,14.704,33.143,NaN,NaN
20040329,004546,521136,32.917520,-118.937860,14.550,33.142,NaN,NaN
20040329,004616,521166,32.917530,-118.937880,14.432,33.132,NaN,NaN
20040329,004646,521196,32.917530,-118.937890,14.325,33.139,NaN,NaN
20040329,004716,521226,32.917530,-118.937910,14.297,33.144,NaN,NaN
20040329,004746,521256,32.917540,-118.937950,14.554,33.162,NaN,NaN
20040329,004816,521286,32.917550,-118.938010,14.861,33.161,NaN,NaN
20040329,004846,521316,32.917550,-118.938060,14.859,33.155,NaN,NaN
20040329,004916,521346,32.917540,-118.938100,14.794,33.154,NaN,NaN
20040329,004946,521376,32.917550,-118.938120,14.689,33.149,NaN,NaN
20040329,005016,521405,32.917540,-118.938140,14.561,33.145,NaN,NaN
20040329,005046,521436,32.917560,-118.938140,14.462,33.144,NaN,NaN
20040329,005116,521466,32.917580,-118.938120,14.424,33.147,NaN,NaN
20040329,005146,521496,32.917570,-118.938120,14.453,33.150,NaN,NaN
20040329,005216,521526,32.917560,-118.938120,14.472,33.149,NaN,NaN
20040329,005246,521556,32.917570,-118.938100,14.459,33.149,NaN,NaN
20040329,005316,521585,32.917580,-118.938080,14.458,33.151,NaN,NaN
20040329,005346,521616,32.917580,-118.938060,14.479,33.151,NaN,NaN
20040329,005416,521646,32.917580,-118.938050,14.495,33.152,NaN,NaN
20040329,005446,521676,32.917590,-118.938020,14.509,33.149,NaN,NaN
20040329,005516,521706,32.917610,-118.937970,14.532,33.154,NaN,NaN
20040329,005546,521736,32.917620,-118.937950,14.737,33.165,NaN,NaN
20040329,005616,521766,32.917640,-118.937970,15.107,33.173,NaN,NaN
20040329,005646,521796,32.917700,-118.937960,15.451,33.177,NaN,NaN
20040329,005716,521826,32.917730,-118.937970,15.693,33.178,NaN,NaN
20040329,005746,521856,32.917750,-118.937970,15.854,33.169,NaN,NaN
20040329,005816,521886,32.917770,-118.937980,15.968,33.178,NaN,NaN
20040329,005846,521915,32.917790,-118.937980,16.060,33.178,NaN,NaN
20040329,005916,521946,32.917810,-118.937990,16.144,33.179,NaN,NaN
20040329,005946,521976,32.917820,-118.938020,16.216,33.179,NaN,NaN
20040329,010016,522006,32.917830,-118.938040,16.276,33.179,NaN,NaN
20040329,010046,522036,32.917840,-118.938110,16.328,33.179,NaN,NaN
20040329,010116,522066,32.917860,-118.938190,16.368,33.178,NaN,NaN
20040329,010146,522095,32.917880,-118.938240,16.397,33.178,NaN,NaN
20040329,010216,522126,32.917890,-118.938290,16.424,33.178,NaN,NaN
20040329,010246,522156,32.917880,-118.938350,16.443,33.178,NaN,NaN
20040329,010316,522186,32.917900,-118.938370,16.336,33.167,NaN,NaN
20040329,010346,522216,32.917900,-118.938410,15.938,33.154,NaN,NaN
20040329,010416,522246,32.917920,-118.938460,15.724,33.163,NaN,NaN
20040329,010446,522276,32.917930,-118.938510,15.798,33.169,NaN,NaN
20040329,010516,522306,32.917960,-118.938550,15.918,33.174,NaN,NaN
20040329,010546,522336,32.917950,-118.938600,16.017,33.172,NaN,NaN
20040329,010616,522366,32.917960,-118.938640,15.937,33.166,NaN,NaN
20040329,010646,522396,32.917960,-118.938690,15.936,33.172,NaN,NaN
20040329,010716,522425,32.917980,-118.938740,16.062,33.176,NaN,NaN
20040329,010746,522456,32.917990,-118.938760,16.129,33.171,NaN,NaN
20040329,010816,522486,32.917990,-118.938790,15.997,33.165,NaN,NaN
20040329,010846,522516,32.918000,-118.938820,15.884,33.165,NaN,NaN
20040329,010916,522546,32.917990,-118.938850,15.850,33.168,NaN,NaN
20040329,010946,522576,32.918000,-118.938880,15.933,33.174,NaN,NaN
20040329,011016,522606,32.917990,-118.938890,16.084,33.176,NaN,NaN
20040329,011046,522636,32.917990,-118.938900,16.202,33.176,NaN,NaN
20040329,011116,522666,32.917990,-118.938910,16.254,33.176,NaN,NaN
20040329,011146,522696,32.918000,-118.938930,16.293,33.176,NaN,NaN
20040329,011216,522726,32.918000,-118.938950,16.314,33.176,NaN,NaN
20040329,011246,522755,32.917990,-118.938950,16.327,33.176,NaN,NaN
20040329,011316,522786,32.918010,-118.938950,16.323,33.175,NaN,NaN
20040329,011346,522816,32.918010,-118.938960,16.322,33.176,NaN,NaN
20040329,011416,522846,32.918010,-118.938970,16.353,33.176,NaN,NaN
20040329,011446,522876,32.918000,-118.938960,16.389,33.177,NaN,NaN
20040329,011516,522906,32.918020,-118.938970,16.418,33.177,NaN,NaN
20040329,011546,522935,32.918020,-118.938980,16.439,33.177,NaN,NaN
20040329,011616,522966,32.918030,-118.938970,16.451,33.177,NaN,NaN
20040329,011646,522996,32.918030,-118.938980,16.456,33.177,NaN,NaN
20040329,011716,523026,32.918040,-118.938970,16.460,33.177,NaN,NaN
20040329,011746,523056,32.918050,-118.938980,16.462,33.176,NaN,NaN
20040329,011816,523086,32.918070,-118.939000,16.469,33.177,NaN,NaN
20040329,011846,523116,32.918080,-118.939010,16.480,33.177,NaN,NaN
20040329,011916,523146,32.918090,-118.939040,16.492,33.177,NaN,NaN
20040329,011947,523176,32.918110,-118.939080,16.505,33.177,NaN,NaN
20040329,012017,523207,32.918150,-118.939140,16.520,33.177,NaN,NaN
20040329,012047,523237,32.918170,-118.939180,16.532,33.177,NaN,NaN
20040329,012117,523267,32.918190,-118.939200,16.532,33.177,NaN,NaN
20040329,012147,523297,32.918210,-118.939230,16.509,33.176,NaN,NaN
20040329,012217,523327,32.918240,-118.939250,16.478,33.176,NaN,NaN
20040329,012247,523356,32.918250,-118.939260,16.471,33.177,NaN,NaN
20040329,012316,523386,32.918260,-118.939270,16.477,33.176,NaN,NaN
20040329,012346,523416,32.918280,-118.939260,16.478,33.177,NaN,NaN
20040329,012416,523445,32.918290,-118.939250,16.481,33.177,NaN,NaN
20040329,012446,523476,32.918300,-118.939280,16.477,33.177,NaN,NaN
20040329,012516,523506,32.918330,-118.939280,16.472,33.177,NaN,NaN
20040329,012546,523536,32.918350,-118.939300,16.466,33.176,NaN,NaN
20040329,012616,523566,32.918350,-118.939310,16.457,33.176,NaN,NaN
20040329,012646,523596,32.918380,-118.939320,16.449,33.162,NaN,NaN
20040329,012716,523626,32.918380,-118.939330,16.437,33.176,NaN,NaN
20040329,012746,523656,32.918370,-118.939330,16.427,33.176,NaN,NaN
20040329,012816,523686,32.918370,-118.939320,16.420,33.176,NaN,NaN
20040329,012846,523716,32.918370,-118.939350,16.412,33.176,NaN,NaN
20040329,012916,523746,32.918370,-118.939370,16.413,33.176,NaN,NaN
20040329,012946,523775,32.918370,-118.939370,16.410,33.176,NaN,NaN
20040329,013016,523806,32.918360,-118.939380,16.394,33.176,NaN,NaN
20040329,013046,523836,32.918370,-118.939410,16.369,33.176,NaN,NaN
20040329,013116,523866,32.918410,-118.939460,16.349,33.176,NaN,NaN
20040329,013146,523896,32.918440,-118.939540,16.326,33.176,NaN,NaN
20040329,013216,523926,32.918450,-118.939590,16.325,33.176,NaN,NaN
20040329,013246,523956,32.918480,-118.939690,16.337,33.176,NaN,NaN
20040329,013316,523986,32.918490,-118.939790,16.338,33.176,NaN,NaN
20040329,013346,524016,32.918490,-118.939880,16.327,33.176,NaN,NaN
20040329,013416,524046,32.918480,-118.939950,16.320,33.176,NaN,NaN
20040329,013446,524076,32.918490,-118.940050,16.314,33.176,NaN,NaN
20040329,013516,524105,32.918520,-118.940190,16.304,33.176,NaN,NaN
20040329,013547,524137,32.918560,-118.940290,16.292,33.176,NaN,NaN
20040329,013617,524167,32.918600,-118.940370,16.281,33.176,NaN,NaN
20040329,013647,524196,32.918630,-118.940430,16.212,33.171,NaN,NaN
20040329,013717,524227,32.918690,-118.940490,15.987,33.163,NaN,NaN
20040329,013746,524256,32.918740,-118.940540,15.745,33.160,NaN,NaN
20040329,013816,524285,32.918780,-118.940590,15.719,33.166,NaN,NaN
20040329,013846,524316,32.918800,-118.940630,15.768,33.168,NaN,NaN
20040329,013916,524346,32.918820,-118.940650,15.798,33.171,NaN,NaN
20040329,013946,524376,32.918840,-118.940680,15.861,33.173,NaN,NaN
20040329,014016,524406,32.918860,-118.940710,15.939,33.173,NaN,NaN
20040329,014046,524436,32.918850,-118.940770,15.938,33.171,NaN,NaN
20040329,014116,524466,32.918870,-118.940820,15.904,33.170,NaN,NaN
20040329,014146,524496,32.918870,-118.940860,15.888,33.168,NaN,NaN
20040329,014216,524526,32.918890,-118.940930,15.826,33.165,NaN,NaN
20040329,014246,524556,32.918910,-118.940990,15.643,33.153,NaN,NaN
20040329,014316,524586,32.918930,-118.941020,15.390,33.137,NaN,NaN
20040329,014346,524615,32.918960,-118.941060,15.196,33.144,NaN,NaN
20040329,014416,524646,32.918990,-118.941080,15.067,33.143,NaN,NaN
20040329,014446,524676,32.919020,-118.941120,14.984,33.144,NaN,NaN
20040329,014516,524706,32.919060,-118.941130,14.982,33.149,NaN,NaN
20040329,014546,524736,32.919110,-118.941140,15.097,33.159,NaN,NaN
20040329,014616,524766,32.919160,-118.941190,15.341,33.167,NaN,NaN
20040329,014646,524795,32.919250,-118.941250,15.587,33.173,NaN,NaN
20040329,014716,524826,32.919340,-118.941360,15.771,33.175,NaN,NaN
20040329,014747,524857,32.919400,-118.941520,15.893,33.174,NaN,NaN
20040329,014817,524887,32.919410,-118.941690,15.965,33.176,NaN,NaN
20040329,014847,524917,32.919470,-118.941910,16.018,33.176,NaN,NaN
20040329,014917,524947,32.919520,-118.942140,16.060,33.176,NaN,NaN
20040329,014947,524977,32.919570,-118.942370,16.087,33.175,NaN,NaN
20040329,015017,525007,32.919660,-118.942610,16.068,33.172,NaN,NaN
20040329,015047,525036,32.919720,-118.942860,15.888,33.161,NaN,NaN
20040329,015117,525067,32.919770,-118.943120,15.628,33.157,NaN,NaN
20040329,015147,525097,32.919830,-118.943390,15.442,33.154,NaN,NaN
20040329,015217,525127,32.919890,-118.943660,15.278,33.151,NaN,NaN
20040329,015247,525157,32.919950,-118.943940,15.104,33.145,NaN,NaN
20040329,015317,525187,32.920000,-118.944200,14.944,33.141,NaN,NaN
20040329,015347,525217,32.920060,-118.944470,14.842,33.139,NaN,NaN
20040329,015417,525247,32.920120,-118.944740,14.786,33.140,NaN,NaN
20040329,015447,525277,32.920160,-118.945010,14.773,33.142,NaN,NaN
20040329,015517,525307,32.920220,-118.945300,14.759,33.140,NaN,NaN
20040329,015547,525337,32.920280,-118.945570,14.754,33.142,NaN,NaN
20040329,015617,525366,32.920330,-118.945850,14.785,33.144,NaN,NaN
20040329,015647,525397,32.920380,-118.946130,14.781,33.141,NaN,NaN
20040329,015717,525427,32.920410,-118.946390,14.786,33.141,NaN,NaN
20040329,015747,525457,32.920430,-118.946610,14.785,33.140,NaN,NaN
20040329,015817,525487,32.920430,-118.946830,14.810,33.143,NaN,NaN
20040329,015847,525517,32.920480,-118.947030,14.892,33.145,NaN,NaN
20040329,015917,525546,32.920520,-118.947240,14.886,33.140,NaN,NaN
20040329,015947,525577,32.920570,-118.947470,14.802,33.133,NaN,NaN
20040329,020017,525607,32.920600,-118.947690,14.708,33.130,NaN,NaN
20040329,020047,525637,32.920620,-118.947910,14.664,33.130,NaN,NaN
20040329,020117,525667,32.920640,-118.948120,14.642,33.130,NaN,NaN
20040329,020147,525697,32.920660,-118.948320,14.624,33.129,NaN,NaN
20040329,020217,525727,32.920700,-118.948510,14.639,33.131,NaN,NaN
20040329,020247,525757,32.920740,-118.948700,14.650,33.131,NaN,NaN
20040329,020317,525787,32.920770,-118.948880,14.650,33.130,NaN,NaN
20040329,020347,525817,32.920770,-118.949090,14.643,33.130,NaN,NaN
20040329,020417,525847,32.920760,-118.949320,14.670,33.132,NaN,NaN
20040329,020447,525876,32.920710,-118.949560,14.716,33.132,NaN,NaN
20040329,020517,525907,32.920680,-118.949820,14.735,33.132,NaN,NaN
20040329,020547,525937,32.920650,-118.950120,14.792,33.134,NaN,NaN
20040329,020617,525967,32.920600,-118.950440,14.895,33.137,NaN,NaN
20040329,020647,525997,32.920530,-118.950780,14.932,33.133,NaN,NaN
20040329,020717,526027,32.920450,-118.951120,14.944,33.135,NaN,NaN
20040329,020747,526056,32.920400,-118.951490,15.081,33.141,NaN,NaN
20040329,020817,526087,32.920340,-118.951840,15.328,33.146,NaN,NaN
20040329,020847,526117,32.920270,-118.952190,15.518,33.144,NaN,NaN
20040329,020917,526147,32.920200,-118.952540,15.609,33.143,NaN,NaN
20040329,020947,526177,32.920140,-118.952860,15.565,33.135,NaN,NaN
20040329,021017,526207,32.920080,-118.953170,15.395,33.129,NaN,NaN
20040329,021047,526237,32.920000,-118.953460,15.168,33.123,NaN,NaN
20040329,021117,526267,32.919940,-118.953750,14.907,33.119,NaN,NaN
20040329,021147,526297,32.919850,-118.953980,14.687,33.118,NaN,NaN
20040329,021217,526327,32.919780,-118.954170,14.542,33.118,NaN,NaN
20040329,021247,526357,32.919700,-118.954350,14.444,33.118,NaN,NaN
20040329,021317,526386,32.919620,-118.954510,14.384,33.119,NaN,NaN
20040329,021347,526417,32.919510,-118.954660,14.342,33.119,NaN,NaN
20040329,021417,526447,32.919440,-118.954820,14.303,33.118,NaN,NaN
20040329,021447,526477,32.919360,-118.954970,14.291,33.119,NaN,NaN
20040329,021517,526507,32.919280,-118.955110,14.281,33.119,NaN,NaN
20040329,021547,526537,32.919210,-118.955230,14.246,33.118,NaN,NaN
20040329,021617,526567,32.919110,-118.955350,14.198,33.117,NaN,NaN
20040329,021647,526597,32.919050,-118.955450,14.169,33.117,NaN,NaN
20040329,021717,526627,32.918950,-118.955580,14.146,33.117,NaN,NaN
20040329,021747,526657,32.918850,-118.955740,14.128,33.117,NaN,NaN
20040329,021817,526687,32.918860,-118.955930,14.122,33.117,NaN,NaN
20040329,021847,526716,NaN,NaN,14.147,33.120,NaN,NaN
20040329,021917,526747,NaN,NaN,14.195,33.120,NaN,NaN
20040329,021947,526777,NaN,NaN,14.226,33.120,NaN,NaN
20040329,022017,526807,NaN,NaN,14.221,33.119,NaN,NaN
20040329,022047,526837,NaN,NaN,14.198,33.118,NaN,NaN
20040329,022118,526868,NaN,NaN,14.171,33.117,NaN,NaN
20040329,022147,526896,NaN,NaN,14.148,33.117,NaN,NaN
20040329,022217,526927,NaN,NaN,14.128,33.117,NaN,NaN
20040329,022248,526958,NaN,NaN,14.121,33.117,NaN,NaN
20040329,022318,526988,NaN,NaN,14.113,33.117,NaN,NaN
20040329,022347,527017,NaN,NaN,14.104,33.117,NaN,NaN
20040329,022418,527048,NaN,NaN,14.098,33.117,NaN,NaN
20040329,022448,527078,NaN,NaN,14.093,33.117,NaN,NaN
20040329,022518,527108,NaN,NaN,14.093,33.117,NaN,NaN
20040329,022548,527137,NaN,NaN,14.097,33.117,NaN,NaN
20040329,022618,527168,NaN,NaN,14.092,33.116,NaN,NaN
20040329,022648,527198,NaN,NaN,14.083,33.116,NaN,NaN
20040329,022718,527228,NaN,NaN,14.070,33.116,NaN,NaN
20040329,022748,527258,NaN,NaN,14.067,33.116,NaN,NaN
20040329,022818,527288,NaN,NaN,14.076,33.117,NaN,NaN
20040329,022847,527317,NaN,NaN,14.080,33.117,NaN,NaN
20040329,022918,527348,32.917040,-118.960420,14.088,33.117,NaN,NaN
20040329,022948,527378,32.916940,-118.960680,14.097,33.117,NaN,NaN
20040329,023018,527408,32.916860,-118.960930,14.101,33.117,NaN,NaN
20040329,023048,527438,32.916780,-118.961200,14.118,33.117,NaN,NaN
20040329,023118,527467,32.916690,-118.961460,14.121,33.117,NaN,NaN
20040329,023148,527498,32.916580,-118.961740,14.127,33.117,NaN,NaN
20040329,023218,527528,32.916510,-118.962010,14.120,33.116,NaN,NaN
20040329,023248,527558,32.916410,-118.962290,14.106,33.116,NaN,NaN
20040329,023318,527588,32.916330,-118.962550,14.086,33.115,NaN,NaN
20040329,023348,527618,32.916250,-118.962840,14.071,33.115,NaN,NaN
20040329,023418,527647,32.916160,-118.963120,14.065,33.115,NaN,NaN
20040329,023448,527678,32.916080,-118.963410,14.068,33.116,NaN,NaN
20040329,023518,527708,32.916010,-118.963690,14.074,33.115,NaN,NaN
20040329,023548,527738,32.916070,-118.963910,14.066,33.115,NaN,NaN
20040329,023618,527768,32.915850,-118.964170,14.061,33.115,NaN,NaN
20040329,023649,527799,NaN,NaN,14.057,33.116,NaN,NaN
20040329,023718,527828,NaN,NaN,14.068,33.116,NaN,NaN
20040329,023748,527858,NaN,NaN,14.087,33.116,NaN,NaN
20040329,023818,527888,NaN,NaN,14.107,33.116,NaN,NaN
20040329,023848,527918,NaN,NaN,14.120,33.116,NaN,NaN
20040329,023918,527948,NaN,NaN,14.137,33.116,NaN,NaN
20040329,023948,527977,NaN,NaN,14.141,33.115,NaN,NaN
20040329,024018,528008,NaN,NaN,14.147,33.116,NaN,NaN
20040329,024048,528038,NaN,NaN,14.146,33.115,NaN,NaN
20040329,024118,528068,NaN,NaN,14.153,33.115,NaN,NaN
20040329,024148,528098,NaN,NaN,14.165,33.115,NaN,NaN
20040329,024218,528128,NaN,NaN,14.175,33.115,NaN,NaN
20040329,024248,528157,NaN,NaN,14.194,33.111,NaN,NaN
20040329,024318,528188,32.914970,-118.967620,14.204,33.115,NaN,NaN
20040329,024348,528218,32.914880,-118.967850,14.214,33.115,NaN,NaN
20040329,024418,528248,32.914780,-118.968130,14.237,33.116,NaN,NaN
20040329,024448,528278,32.914720,-118.968460,14.244,33.116,NaN,NaN
20040329,024518,528308,32.914640,-118.968800,14.256,33.116,NaN,NaN
20040329,024548,528338,32.914570,-118.969060,14.267,33.116,NaN,NaN
20040329,024618,528368,32.914510,-118.969270,14.284,33.116,NaN,NaN
20040329,024648,528398,32.914450,-118.969460,14.279,33.115,NaN,NaN
20040329,024718,528428,32.914380,-118.969660,14.274,33.115,NaN,NaN
20040329,024748,528458,32.914320,-118.969850,14.269,33.115,NaN,NaN
20040329,024818,528487,32.914260,-118.970050,14.274,33.116,NaN,NaN
20040329,024848,528518,32.914210,-118.970260,14.305,33.117,NaN,NaN
20040329,024918,528548,32.914140,-118.970470,14.345,33.117,NaN,NaN
20040329,024948,528578,32.914070,-118.970690,14.388,33.118,NaN,NaN
20040329,025018,528608,32.913990,-118.970930,14.414,33.117,NaN,NaN
20040329,025048,528638,32.913910,-118.971190,14.437,33.118,NaN,NaN
20040329,025118,528667,32.913850,-118.971450,14.456,33.117,NaN,NaN
20040329,025148,528698,32.913770,-118.971720,14.469,33.117,NaN,NaN
20040329,025218,528728,32.913690,-118.971980,14.487,33.117,NaN,NaN
20040329,025248,528758,32.913600,-118.972250,14.492,33.117,NaN,NaN
20040329,025318,528788,32.913520,-118.972560,14.486,33.116,NaN,NaN
20040329,025348,528817,32.913470,-118.972840,14.468,33.116,NaN,NaN
20040329,025418,528848,32.913380,-118.973110,14.458,33.116,NaN,NaN
20040329,025448,528878,32.913260,-118.973400,14.458,33.116,NaN,NaN
20040329,025518,528908,NaN,NaN,14.480,33.117,NaN,NaN
20040329,025548,528938,NaN,NaN,14.513,33.117,NaN,NaN
20040329,025618,528968,NaN,NaN,14.524,33.116,NaN,NaN
20040329,025648,528997,NaN,NaN,14.517,33.116,NaN,NaN
20040329,025718,529028,NaN,NaN,14.510,33.115,NaN,NaN
20040329,025748,529058,NaN,NaN,14.500,33.115,NaN,NaN
20040329,025818,529088,NaN,NaN,14.467,33.114,NaN,NaN
20040329,025848,529118,NaN,NaN,14.423,33.114,NaN,NaN
20040329,025918,529148,NaN,NaN,14.412,33.100,NaN,NaN
20040329,025948,529178,NaN,NaN,14.446,33.116,NaN,NaN
20040329,030018,529208,NaN,NaN,14.505,33.116,NaN,NaN
20040329,030048,529238,NaN,NaN,14.570,33.116,NaN,NaN